KLM78E ENBR-EHAM

Flight info

Callsign KLM78E
Flight time N/A
Altitude 37000
Route TUXIL DCT ZOL DCT ATNAK/N0441F360 DCT TIPAN/N0440F380 DCT WECOW DCT LARDI/N0440F370 DCT TOPPA
Aircraft B738/M-SDE2E3FGHIRWXY/LB1

Departure

Time N/A
Airport Bergen Airport, Flesland (ENBR)

Arrival

Time 2026-04-30 18:04
Airport Amsterdam Airport Schiphol (EHAM)
Time Latitude Longitude Altitude Speed Heading
2026-04-30 17:39 52.15632 4.20480 4292 ft 203 kts 138°
2026-04-30 17:41 52.17612 4.37388 3060 ft 179 kts 77°
2026-04-30 17:42 52.18346 4.41068 2614 ft 175 kts 77°
2026-04-30 17:42 52.19434 4.46746 2024 ft 173 kts 77°
2026-04-30 17:43 52.20204 4.50409 1968 ft 168 kts 66°
2026-04-30 17:44 52.21765 4.54553 1992 ft 140 kts 66°
2026-04-30 17:44 52.23316 4.58725 1993 ft 145 kts 66°
2026-04-30 17:46 52.25696 4.65113 1271 ft 123 kts 67°
2026-04-30 17:47 52.27459 4.69864 526 ft 123 kts 63°
2026-04-30 17:48 52.29219 4.74554 25 ft 106 kts 62°
2026-04-30 17:48 52.31035 4.79157 1377 ft 177 kts 62°
2026-04-30 17:49 52.32375 4.87071 2119 ft 184 kts 117°
2026-04-30 17:50 52.27369 4.88242 2756 ft 220 kts 182°
2026-04-30 17:51 52.22858 4.87058 2994 ft 219 kts 182°
2026-04-30 17:52 52.18784 4.83972 3013 ft 240 kts 230°
2026-04-30 17:53 52.14828 4.73388 2988 ft 237 kts 232°
2026-04-30 17:54 52.12333 4.63916 2982 ft 251 kts 281°
2026-04-30 17:55 52.17493 4.56698 2964 ft 242 kts 332°
2026-04-30 17:56 52.22768 4.51461 2773 ft 213 kts 333°
2026-04-30 17:57 52.23920 4.45479 2236 ft 200 kts 224°
2026-04-30 17:58 52.21011 4.45895 1995 ft 158 kts 103°
2026-04-30 17:59 52.21141 4.53133 1957 ft 163 kts 72°
2026-04-30 18:00 52.23414 4.59371 1965 ft 145 kts 66°
2026-04-30 18:00 52.24862 4.63171 1538 ft 124 kts 66°
2026-04-30 18:01 52.25750 4.65493 1200 ft 119 kts 66°
2026-04-30 18:02 52.27091 4.69024 674 ft 128 kts 62°
2026-04-30 18:02 52.28490 4.72608 238 ft 133 kts 62°
2026-04-30 18:03 52.29665 4.75687 -4 ft 53 kts 58°
2026-04-30 18:04 52.29930 4.76375 -8 ft 19 kts 54°
2026-04-30 18:05 52.30289 4.76778 -4 ft 12 kts 53°
2026-04-30 18:06 52.30358 4.76939 -4 ft 2 kts 57°
2026-04-30 18:07 52.30378 4.76990 -4 ft 0 kts 58°
2026-04-30 18:08 52.30384 4.77006 -4 ft 1 kts 59°
2026-04-30 18:09 52.30398 4.77046 -4 ft 1 kts 62°
2026-04-30 18:10 52.30441 4.77161 -4 ft 11 kts 58°
2026-04-30 18:11 52.30649 4.77475 -3 ft 12 kts 335°
2026-04-30 18:11 52.30838 4.77346 -3 ft 8 kts 276°
2026-04-30 18:12 52.30873 4.77300 -3 ft 1 kts
2026-04-30 18:13 52.30885 4.77301 -3 ft 0 kts